This is the latest recevied weather packets stored in our database for station/object KD2RHT-13. If no packets are shown the sender has not sent any weather packets the latest 10 day(s).
| Time | Temp. | Humidity | Pressure | Rain* | Wind** | Luminosity | Snow |
|---|---|---|---|---|---|---|---|
| 1777831682 | 14.44° C | 47% | 1012.7 hPa | 0 mm | - | 845 W/m² | - |
| 1777831380 | 13.89° C | 49% | 1012.7 hPa | 0 mm | - | 396 W/m² | - |
| 1777831076 | 14.44° C | 46% | 1013.1 hPa | 0 mm | - | 668 W/m² | - |
| 1777830774 | 13.33° C | 44% | 1013.1 hPa | 0 mm | - | 667 W/m² | - |
| 1777830469 | 13.89° C | 52% | 1012.7 hPa | 0 mm | - | 686 W/m² | - |
| 1777830168 | 14.44° C | 47% | 1013.1 hPa | 0 mm | - | 697 W/m² | - |
| 1777829868 | 13.89° C | 42% | 1013.1 hPa | 0 mm | - | 700 W/m² | - |
| 1777829564 | 12.78° C | 45% | 1013.5 hPa | 0 mm | - | 692 W/m² | - |
| 1777829261 | 13.33° C | 47% | 1013.1 hPa | 0 mm | - | 696 W/m² | - |
| 1777828958 | 12.22° C | 48% | 1013.5 hPa | 0 mm | - | 710 W/m² | - |
| 1777828655 | 13.33° C | 45% | 1013.1 hPa | 0 mm | - | 150 W/m² | - |
| 1777828352 | 13.33° C | 48% | 1013.5 hPa | 0 mm | - | 748 W/m² | - |
| 1777828049 | 12.78° C | 49% | 1013.5 hPa | 0 mm | - | 735 W/m² | - |
| 1777827746 | 12.78° C | 45% | 1013.5 hPa | 0 mm | - | 717 W/m² | - |
| 1777827443 | 12.78° C | 47% | 1013.5 hPa | 0 mm | - | 712 W/m² | - |
| 1777827140 | 12.78° C | 47% | 1013.5 hPa | 0 mm | - | 496 W/m² | - |
| 1777826835 | 12.78° C | 48% | 1013.9 hPa | 0 mm | - | 729 W/m² | - |
| 1777826534 | 12.78° C | 43% | 1013.9 hPa | 0 mm | - | 730 W/m² | - |
| 1777826229 | 12.22° C | 47% | 1014.2 hPa | 0 mm | - | 740 W/m² | - |
| 1777825927 | 12.22° C | 45% | 1014.2 hPa | 0 mm | - | 735 W/m² | - |
| 1777825624 | 12.22° C | 49% | 1014.2 hPa | 0 mm | - | 736 W/m² | - |
| 1777825322 | 12.22° C | 45% | 1014.5 hPa | 0 mm | - | 740 W/m² | - |
| 1777825018 | 12.78° C | 48% | 1014.5 hPa | 0 mm | - | 744 W/m² | - |
| 1777824714 | 12.22° C | 47% | 1014.5 hPa | 0 mm | - | 847 W/m² | - |
| 1777824412 | 11.67° C | 45% | 1014.5 hPa | 0 mm | - | 772 W/m² | - |
* Rain latest hour (hover to see other rain measurements)
** Current wind speed in m/s (hover to see current wind gust speed)